Location: *
(40.7873°S, 98.7174°E)
Time: 06:20:53
(UTC+00:00)

Cosmos 1741 Rocket - Visible Passes

Search period start: 06 October 2022 00:00
Search period end: 16 October 2022 00:00
Orbit: 761 x 781 km, 74.0° (Epoch: 05 October)

Date Brightness Start Highest point End Pass type
(mag) Time Alt. Az. Time Alt. Az. Time Alt. Az.
06 Oct 6.4 22:05:41 10° NNE 22:10:00 26° E 22:14:22 10° SE visible
07 Oct 6.9 21:31:14 10° NE 21:34:14 15° E 21:37:17 10° ESE visible
09 Oct 5.2 21:58:43 10° N 22:03:44 47° ENE 22:08:50 10° SSE visible
10 Oct 6.1 21:23:28 10° NNE 21:27:53 28° E 21:32:21 10° SE visible
11 Oct 6.7 20:48:53 10° NE 20:52:07 16° E 20:55:21 10° ESE visible
12 Oct 4.2 21:52:18 10° NNW 21:57:35 84° ENE 22:02:59 10° SSE visible
13 Oct 4.9 21:16:33 10° N 21:21:37 49° ENE 21:26:47 10° SSE visible
14 Oct 5.8 20:41:15 10° NNE 20:45:45 29° E 20:50:20 10° SE visible
15 Oct 6.5 20:06:34 10° NE 20:09:59 18° E 20:13:25 10° SE visible
15 Oct 4.2 21:46:23 10° NW 21:51:34 56° WSW 21:56:52 10° S visible
